Home   Weather   Istanbul   Past weeks
Flag for Turkey

Past Weather in Istanbul, Turkey — Yesterday and Last 2 Weeks

Now
46 °F

Sunny.


Feels Like: 41 °F
Forecast: 53 / 40 °F
Wind: 12 mph from Southwest

Location: Istanbul Ataturk Airport

Current Time: Jan 17, 2019 at 2:07:57 pm

Latest Report: Jan 17, 2019 at 1:20 pm


Visibility: 10 mi

Pressure: 30.15 "Hg

Humidity: 71%

Dew Point: 37 °F

Location of IstanbulLocation

Past Weather in Istanbul — Graph

°F

Istanbul Temperature Yesterday

Maximum temperature yesterday: 43 °F (at 7:20 pm)
Minimum temperature yesterday: 32 °F (at 7:20 am)
Average temperature yesterday: 38 °F

High & Low Weather Summary for the Past Weeks

 TemperatureHumidityPressure
High54 °F (Jan 10, 11:20 am)94% (Jan 11, 9:50 am)30.21 "Hg (Jan 11, 9:50 am)
Low28 °F (Jan 8, 8:50 pm)45% (Jan 16, 3:20 pm)29.56 "Hg (Jan 14, 2:20 pm)
Average41 °F75%29.90 "Hg
* Reported Jan 2 12:20 pm — Jan 17 12:50 pm, Istanbul. Weather by CustomWeather, © 2019

Note: Actual official high and low records may vary slightly from our data, if they occured in-between our weather recording intervals... More about our weather records

Advertising

Istanbul Weather History for the Previous 24 Hours

Scroll right to see more
 ConditionsComfort  
Time TempWeatherWind HumidityBarometerVisibility
12:50 pm
Thu, Jan 17
46 °FSunny.13 mph71%30.15 "Hg10 mi
12:20 pm46 °FSunny.12 mph71%30.18 "Hg10 mi
11:50 am46 °FSunny.12 mph71%30.18 "Hg10 mi
11:20 am46 °FPassing clouds.13 mph71%30.18 "HgN/A
10:50 am46 °FSunny.12 mph71%30.15 "Hg10 mi
10:20 am46 °FSunny.12 mph71%30.15 "Hg10 mi
9:50 am45 °FSunny.12 mph76%30.15 "Hg10 mi
9:20 am45 °FSunny.12 mph76%30.15 "Hg10 mi
8:50 am43 °FPassing clouds.10 mph81%30.12 "HgN/A
8:20 am43 °FPassing clouds.9 mph81%30.12 "HgN/A
7:50 am43 °FPassing clouds.10 mph76%30.12 "HgN/A
7:20 am43 °FClear.12 mph81%30.12 "Hg10 mi
6:50 am43 °FClear.10 mph81%30.12 "Hg10 mi
6:20 am41 °FClear.6 mph81%30.09 "Hg10 mi
5:50 am41 °FClear.6 mph81%30.09 "Hg10 mi
5:20 am41 °FClear.7 mph81%30.09 "Hg10 mi
4:50 am41 °FClear.8 mph76%30.09 "Hg10 mi
4:20 am41 °FClear.7 mph76%30.09 "Hg10 mi
3:50 am41 °FClear.6 mph81%30.09 "Hg10 mi
3:20 am43 °FClear.7 mph81%30.09 "Hg10 mi
2:50 am45 °FPassing clouds.13 mph76%30.09 "HgN/A
2:20 am45 °FPassing clouds.13 mph71%30.07 "HgN/A
1:50 am43 °FClear.12 mph76%30.07 "Hg10 mi
1:20 am43 °FClear.13 mph76%30.07 "Hg10 mi
12:50 am43 °FClear.12 mph76%30.07 "Hg10 mi
12:20 am43 °FClear.12 mph76%30.07 "Hg10 mi
11:50 pm
Wed, Jan 16
43 °FClear.15 mph71%30.07 "Hg10 mi
11:20 pm43 °FClear.13 mph71%30.07 "Hg10 mi
10:50 pm43 °FClear.16 mph66%30.04 "Hg10 mi
10:20 pm43 °FClear.15 mph66%30.04 "Hg10 mi
9:50 pm43 °FPassing clouds.16 mph61%30.04 "HgN/A
8:50 pm43 °FClear.14 mph66%30.04 "Hg10 mi
8:20 pm43 °FPassing clouds.15 mph66%30.04 "HgN/A
7:50 pm43 °FPassing clouds.15 mph57%30.01 "HgN/A
7:20 pm43 °FClear.14 mph61%30.01 "Hg10 mi
6:50 pm41 °FClear.14 mph61%30.01 "Hg10 mi
6:20 pm41 °FClear.15 mph57%30.01 "Hg10 mi
5:50 pm41 °FSunny.16 mph61%30.01 "Hg10 mi
5:20 pm39 °FPartly sunny.14 mph61%29.98 "HgN/A
4:50 pm39 °FSunny.14 mph61%29.98 "Hg10 mi
4:20 pm39 °FSunny.13 mph61%29.98 "Hg10 mi
3:50 pm41 °FSunny.15 mph45%29.98 "Hg10 mi
3:20 pm41 °FPassing clouds.14 mph45%29.98 "HgN/A
2:50 pm41 °FSunny.13 mph49%29.98 "Hg10 mi
2:20 pm41 °FSunny.10 mph49%29.98 "Hg10 mi
Weather by CustomWeather, © 2019

See weather overview